Nashville, TN

6:18 AM CDT on July 17, 2019 (GMT -0500)
Nashville International

Weather History for KBNA - May, 2019

Change the Weather History Date:

Wednesday, May 1, 2019

  Actual Average Record
Temperature  
Mean Temperature 75 °F 64 °F  
Max Temperature 86 °F 75 °F 90 °F (1942)
Min Temperature 64 °F 52 °F 34 °F (1963)
Degree Days  
Heating Degree Days 0    
Month to date heating degree days 0  
Since 1 July heating degree days 3193  
Cooling Degree Days 10    
Month to date cooling degree days 10  
Year to date cooling degree days 69  
Growing Degree Days 26 (Base 50)    
Moisture  
Dew Point 60 °F    
Average Humidity 62    
Maximum Humidity 87    
Minimum Humidity 44    
Precipitation  
Precipitation 0.02 in 0.19 in 6.32 in (2010)
Month to date precipitation 0.02 0.19  
Year to date precipitation 27.90 15.99  
Sea Level Pressure  
Sea Level Pressure 30.10 in    
Wind  
Wind Speed 10 mph (SSW)    
Max Wind Speed 25 mph    
Max Gust Speed 32 mph    
Visibility 10 miles    
Events Rain , Thunderstorm    
T = Trace of Precipitation, MM = Missing Value Source: NWS Daily Summary

Daily Weather History Graph

Daily Weather History Graph

Search for Another Location

Airport or City:

Astronomy

May. 01, 2019 Rise Set
Actual Time 5:54 AM CDT 7:34 PM CDT
Civil Twilight 5:26 AM CDT 8:01 PM CDT
Nautical Twilight 4:53 AM CDT 8:34 PM CDT
Astronomical Twilight 4:18 AM CDT 9:09 PM CDT
Moon 4:29 AM CDT (5/1) 4:30 PM CDT (5/1)
Length of Visible Light 14h 34m
Length of Day
13h 39m
Waning Crescent, 10% of the Moon is Illuminated
May 1
Waning Crescent
May 4
New
May 11
First Quarter
May 18
Full
May 26
Last Quarter

Hourly Weather History & Observations

Time (CDT) Temp. Heat Index Dew Point Humidity Pressure Visibility Wind Dir Wind Speed Gust Speed Precip Events Conditions
12:53 AM 73.0 °F - 57.9 °F 59% 30.07 in 10.0 mi South 9.2 mph - N/A   Mostly Cloudy
1:53 AM 72.0 °F - 59.0 °F 64% 30.06 in 10.0 mi South 12.7 mph - N/A   Scattered Clouds
2:53 AM 71.1 °F - 59.0 °F 66% 30.06 in 10.0 mi South 5.8 mph - N/A   Mostly Cloudy
3:53 AM 69.1 °F - 59.0 °F 70% 30.06 in 10.0 mi South 5.8 mph - N/A   Mostly Cloudy
4:53 AM 70.0 °F - 59.0 °F 68% 30.06 in 10.0 mi SSW 5.8 mph - N/A   Scattered Clouds
5:53 AM 70.0 °F - 59.0 °F 68% 30.09 in 10.0 mi SSW 6.9 mph - N/A   Mostly Cloudy
6:53 AM 72.0 °F - 61.0 °F 68% 30.13 in 10.0 mi SSW 9.2 mph - N/A   Mostly Cloudy
7:53 AM 73.9 °F - 60.1 °F 62% 30.12 in 10.0 mi South 15.0 mph - N/A   Overcast
8:53 AM 75.9 °F - 59.0 °F 56% 30.12 in 10.0 mi South 12.7 mph 20.7 mph N/A   Mostly Cloudy
9:53 AM 77.0 °F - 59.0 °F 54% 30.12 in 10.0 mi South 17.3 mph 25.3 mph N/A   Overcast
10:53 AM 79.0 °F - 59.0 °F 50% 30.13 in 10.0 mi SSW 17.3 mph 26.5 mph N/A   Overcast
11:53 AM 81.0 °F 81.3 °F 59.0 °F 47% 30.13 in 10.0 mi SSW 13.8 mph 21.9 mph N/A   Overcast
12:53 PM 82.9 °F 83.3 °F 61.0 °F 47% 30.12 in 10.0 mi South 16.1 mph 25.3 mph N/A   Mostly Cloudy
1:53 PM 84.9 °F 84.8 °F 60.1 °F 43% 30.10 in 10.0 mi SSW 17.3 mph 23.0 mph N/A   Mostly Cloudy
2:53 PM 82.0 °F 82.1 °F 59.0 °F 45% 30.10 in 10.0 mi SW 17.3 mph 27.6 mph N/A   Mostly Cloudy
3:53 PM 82.9 °F 83.3 °F 61.0 °F 47% 30.07 in 10.0 mi South 15.0 mph 24.2 mph N/A   Mostly Cloudy
4:53 PM 82.0 °F 82.1 °F 59.0 °F 45% 30.07 in 10.0 mi South 19.6 mph 25.3 mph N/A   Mostly Cloudy
6:10 PM 80.1 °F 80.7 °F 59.0 °F 48% 30.12 in 10.0 mi SW 9.2 mph 23.0 mph N/A Thunderstorm Overcast
6:53 PM 69.1 °F - 62.1 °F 78% 30.11 in 7.0 mi SSW 3.5 mph - 0.02 in Rain , Thunderstorm Light Rain
7:09 PM 68.0 °F - 62.1 °F 81% 30.12 in 10.0 mi WSW 3.5 mph - 0.00 in Rain Light Rain
7:53 PM 68.0 °F - 63.0 °F 84% 30.08 in 10.0 mi West 3.5 mph - 0.00 in   Mostly Cloudy
8:53 PM 69.1 °F - 62.1 °F 78% 30.09 in 10.0 mi Calm Calm - N/A   Mostly Cloudy
9:53 PM 66.9 °F - 63.0 °F 87% 30.11 in 10.0 mi SSW 3.5 mph - N/A   Mostly Cloudy
10:53 PM 66.9 °F - 62.1 °F 84% 30.12 in 10.0 mi Calm Calm - N/A   Partly Cloudy
11:53 PM 66.0 °F - 62.1 °F 87% 30.12 in 10.0 mi South 3.5 mph - N/A   Clear